sat.trackr.live / text

‹ back to catalog

STARLINK-11379 [DTC]

NORAD 62089 · 2024-220B

PAYLOAD ACTIVE UNKNOWN

§ Identity

Operator
Country
US
Launch date
2024-11-25
Launch site
AFETR
Launch vehicle
Mass (kg)
RCS (m²)

Purposes: comms

External: N2YO · Heavens-Above · Gunter

§ Orbital elements

Epoch: 2026-05-24T21:17:05.218944Z

Period
91.67 min
Inclination
43.0002°
Eccentricity
0.0002058
Mean motion
15.70877068 rev/d
Perigee alt
355.0 km
Apogee alt
357.8 km
Semi-major
6,734.5 km
B*
9.7862e-4
RAAN
304.0845°
Arg perigee
271.0573°
Mean anomaly
89.0059°
Rev number
8,693

§ Raw data

STARLINK-11379 [DTC]1 62089U 24220B   26144.88686596  .00127264  00000+0  97862-3 0  99942 62089  43.0002 304.0845 0002058 271.0573  89.0059 15.70877068 86936

JSON: /api/v1/satellites/62089 · /tle

For live sub-satellite position, see the globe view (requires WebGL).

§ Visibility from observer

Set your observer location to see the next 7 days of passes ≥ 10°. The values pass through the URL so the page stays shareable.

No JS? Fill the form by hand. The geolocation button needs JavaScript.